Tracking 19575 objects as of 18-Feb-2019
HD Live streaming from Space Station
objects crossing your sky now

COSMOS 734

Track COSMOS 734 now!
10-day predictions
COSMOS 734 is classified as:


NORAD ID: 7823
Int'l Code: 1975-045C
Perigee: 1,450.2 km
Apogee: 1,478.4 km
Inclination: 74.0 °
Period: 115.0 minutes
Semi major axis: 7835 km
RCS: 0.7092 m2 (medium)
Launch date: May 28, 1975
Source: Commonwealth of Independent States (former USSR) (CIS)
Launch site: PLESETSK MISSILE AND SPACE COMPLEX (PKMTR)
aabbcc
Your satellite tracking list
Your tracking list is empty




NASA's NSSDC Master Catalog

Two Line Element Set (TLE):
1  7823U 75045C   19048.84748694 -.00000027 +00000-0 -73052-4 0  9995
2  7823 074.0170 194.2434 0017979 176.5545 338.4308 12.51754810998171
Source of the keplerian elements: AFSPC